Location: Caltech
(34.1382°N, 118.1253°W)
Time: 15:06:27
(UTC-07:00)

Uribyol 2 - Visible Passes

Search period start: 23 April 2014 00:00
Search period end: 03 May 2014 00:00
Orbit: 783 x 798 km, 98.6° (Epoch: 23 April)

Date Brightness Start Highest point End Pass type
(mag) Time Alt. Az. Time Alt. Az. Time Alt. Az.
23 Apr ? 02:04:23 10° NE 02:05:51 16° ENE 02:05:51 16° ENE visible
23 Apr ? 03:43:12 10° N 03:46:36 31° NW 03:46:36 31° NW visible
24 Apr ? 03:13:32 10° N 03:17:00 43° N 03:17:00 43° N visible
25 Apr ? 02:44:16 10° NNE 02:47:24 36° NE 02:47:24 36° NE visible
25 Apr ? 04:25:33 10° NNW 04:28:09 15° WNW 04:28:09 15° WNW visible
26 Apr ? 02:15:29 10° NE 02:17:48 22° ENE 02:17:48 22° ENE visible
26 Apr ? 03:54:57 10° NNW 03:58:33 27° NW 03:58:33 27° NW visible
27 Apr ? 01:47:37 10° ENE 01:48:12 12° ENE 01:48:12 12° ENE visible
27 Apr ? 03:25:07 10° N 03:28:57 44° NNW 03:28:57 44° NNW visible
28 Apr ? 02:55:42 10° NNE 02:59:21 46° NNE 02:59:21 46° NNE visible
28 Apr ? 04:38:11 10° NW 04:39:40 11° WNW 04:40:05 11° WNW visible
29 Apr ? 02:26:42 10° NNE 02:29:44 29° ENE 02:29:44 29° ENE visible
29 Apr ? 04:06:49 10° NNW 04:10:29 22° WNW 04:10:29 22° WNW visible
30 Apr ? 01:58:21 10° NE 02:00:08 16° ENE 02:00:08 16° ENE visible
30 Apr ? 03:36:45 10° N 03:40:52 39° NW 03:40:52 39° NW visible
01 May ? 03:07:10 10° N 03:11:16 56° N 03:11:16 56° N visible
02 May ? 02:38:00 10° NNE 02:41:39 39° NE 02:41:39 39° NE visible
02 May ? 04:18:48 10° NNW 04:22:05 17° WNW 04:22:24 17° WNW visible
